Location: Albany
(35.0170°S, 117.8920°E)
Time: 17:28:23
(UTC+08:00)

Transit 2A - Pass Details

Date: 26 January 2021
Orbit: 601 x 958 km, 66.7° (Epoch: 02 March)

Event Time Altitude Azimuth Distance (km) Brightness Sun altitude
Rises 16:52:16 0° 275° (W) 3,048 10.3 28.4°
Reaches altitude 10° 16:56:38 10° 237° (WSW) 2,238 9.6 27.5°
Maximum altitude 16:57:52 11° 222° (SW) 2,215 9.2 27.3°
Drops below altitude 10° 16:59:08 10° 208° (SSW) 2,301 9.0 27.0°
Sets 17:03:57 0° 172° (S) 3,352 9.3 26.1°
